TimePST,TemperatureF,Dew PointF,Humidity,Sea Level PressureIn,VisibilityMPH,Wind Direction,Wind SpeedMPH,Gust SpeedMPH,PrecipitationIn,Events,Conditions,WindDirDegrees,DateUTC
12:55 AM,66.9,19.9,17,30.16,10.0,East,17.3,-,N/A,,Clear,90,2011-11-10 08:55:00
1:55 AM,64.9,21.0,19,30.17,10.0,East,11.5,-,N/A,,Clear,100,2011-11-10 09:55:00
2:55 AM,64.9,21.0,19,30.17,10.0,East,12.7,-,N/A,,Clear,100,2011-11-10 10:55:00
4:55 AM,63.0,21.9,21,30.16,10.0,East,13.8,-,N/A,,Clear,80,2011-11-10 12:55:00
5:55 AM,64.9,19.9,18,30.17,10.0,East,15.0,-,N/A,,Clear,90,2011-11-10 13:55:00
6:55 AM,64.9,21.0,19,30.17,10.0,East,16.1,-,N/A,,Clear,90,2011-11-10 14:55:00
7:55 AM,68.0,21.0,17,30.18,9.0,East,13.8,23.0,N/A,,Clear,90,2011-11-10 15:55:00
8:55 AM,72.0,21.9,15,30.18,10.0,East,18.4,-,N/A,,Clear,80,2011-11-10 16:55:00
9:55 AM,73.9,21.9,14,30.18,10.0,East,23.0,-,N/A,,Clear,80,2011-11-10 17:55:00
10:55 AM,75.0,21.9,14,30.16,10.0,ENE,19.6,-,N/A,,Clear,70,2011-11-10 18:55:00
11:55 AM,75.9,21.9,13,30.12,10.0,ENE,19.6,26.5,N/A,,Clear,70,2011-11-10 19:55:00
12:55 PM,77.0,23.0,13,30.11,10.0,ENE,18.4,-,N/A,,Clear,70,2011-11-10 20:55:00
1:55 PM,73.9,25.0,16,30.08,10.0,ENE,15.0,-,N/A,,Clear,70,2011-11-10 21:55:00
2:55 PM,73.0,25.0,17,30.05,10.0,East,13.8,-,N/A,,Clear,90,2011-11-10 22:55:00
3:55 PM,72.0,24.1,17,30.05,10.0,ENE,12.7,-,N/A,,Clear,70,2011-11-10 23:55:00
4:55 PM,71.1,23.0,16,30.03,10.0,East,16.1,-,N/A,,Clear,80,2011-11-11 00:55:00
5:55 PM,69.1,24.1,18,30.05,10.0,East,10.4,-,N/A,,Clear,80,2011-11-11 01:55:00
6:55 PM,69.1,25.0,19,30.05,10.0,East,12.7,-,N/A,,Clear,90,2011-11-11 02:55:00
7:55 PM,68.0,25.0,20,30.04,10.0,East,9.2,-,N/A,,Clear,80,2011-11-11 03:55:00
8:55 PM,66.0,27.0,23,30.05,10.0,ENE,9.2,-,N/A,,Clear,70,2011-11-11 04:55:00
9:55 PM,66.9,26.1,21,30.03,10.0,ENE,11.5,-,N/A,,Clear,70,2011-11-11 05:55:00
10:55 PM,66.0,27.0,23,30.02,10.0,Variable,4.6,-,N/A,,Clear,0,2011-11-11 06:55:00